Location: St. Louis
(38.6270°N, 90.1994°W)
Time: 11:03:52
(UTC-06:00)

S-56A Canister/Altair - Pass Details

Date: 05 December 2021
Orbit: 634 x 2499 km, 38.9° (Epoch: 26 January)

Event Time Altitude Azimuth Distance (km) Brightness Sun altitude
Rises 21:47:26 0° 221° (SW) 5,916 12.2 -59.0°
Reaches altitude 10° 21:51:52 10° 216° (SW) 4,712 11.5 -59.8°
Enters shadow 21:51:52 10° 216° (SW) 4,710 11.5 -59.8°
Maximum altitude 22:03:20 43° 151° (SSE) 2,258 - -61.8°
Drops below altitude 10° 22:11:20 10° 84° (E) 3,322 - -63.2°
Sets 22:13:55 0° 77° (ENE) 4,065 - -63.6°
